カタログに戻る

CZ-4B DEB

運用中LEO
NORAD 48622·DEBRIS·🇨🇳 China

打ち上げ May 19, 2021 から Jiuquan Satellite Launch Center

Loading…

次のパス (今後24時間)

TLE

最新Source: Space-Track

元期: Sep 14, 2026, 08:48 UTC

1 48622U 21043B   26257.36717999  .00000015  00000-0  82169-4 0  9991
2 48622  65.9002  33.2263 0024164 175.1738 184.9570 13.87591899269656

AllMySatでCZ-4B DEBをリアルタイム追跡

Download on the App Store